User: anonymous   Login
Location: Banios
(43.0451°N, 0.2335°E)
Time: 11:58:54
(UTC+00:00)
Language:

Tiros 1 despin weight - Orbit

View from above orbital plane
View from above orbital plane
View from above satellite
View from above satellite

Ground track
Ground track

The orbit data is extracted from the following two-line orbital elements,

1 00115U 60002D   21132.70910129  .00000011  00000-0  28315-4 0  9998
2 00115  48.1654 130.7815 0035272 260.7222  98.9700 14.83761461240709
Epoch (UTC): 12 May 2021 17:01:06
Eccentricity: 0.0035272
inclination: 48.1654°
perigee height: 593 km
apogee height: 642 km
right ascension of ascending node: 130.7815°
argument of perigee: 260.7222°
revolutions per day: 14.83761461
mean anomaly at epoch: 98.9700°
orbit number at epoch: 24070

The dashed part of the orbit path shows where the satellite is in the earth's shadow,  

DLR